Location: Keppel Henge
(44.7900°N, 80.9447°W)
Time: 03:56:27
(UTC-05:00)

N. Korean satellite - Visible Passes

Search period start: 23 January 2019 00:00
Search period end: 02 February 2019 00:00
Orbit: 458 x 509 km, 97.2° (Epoch: 22 January)

Date Brightness Start Highest point End Pass type
(mag) Time Alt. Az. Time Alt. Az. Time Alt. Az.
23 Jan 7.2 06:31:23 10° NNE 06:35:04 61° E 06:38:40 10° S visible
23 Jan 9.7 18:42:56 10° SW 18:45:39 19° W 18:48:25 10° NW visible
24 Jan 8.7 06:07:01 10° NNE 06:10:19 30° E 06:13:33 10° SSE visible
24 Jan 8.4 18:17:24 10° SSW 18:20:51 37° W 18:24:21 10° NNW visible
25 Jan 9.8 05:43:09 10° NE 05:45:28 16° E 05:47:45 10° SE visible
25 Jan 7.2 07:15:39 10° N 07:19:04 36° WNW 07:22:25 10° SW visible
25 Jan 6.9 17:52:26 10° S 17:56:07 77° WSW 17:59:53 10° NNW visible
26 Jan 6.5 06:50:47 10° N 06:54:28 74° WNW 06:58:04 10° SSW visible
26 Jan 10.2 19:03:50 10° WSW 19:05:15 12° W 19:06:40 10° WNW visible
27 Jan 7.5 06:26:11 10° NNE 06:29:47 52° E 06:33:19 10° S visible
27 Jan 9.5 18:37:24 10° SSW 18:40:21 22° W 18:43:21 10° NW visible
28 Jan 9.0 06:01:53 10° NE 06:05:00 26° E 06:08:04 10° SSE visible
28 Jan 8.1 18:12:01 10° S 18:15:33 43° W 18:19:09 10° NNW visible
29 Jan 10.0 05:38:13 10° ENE 05:40:08 14° E 05:42:02 10° ESE visible
29 Jan 7.0 07:10:20 10° N 07:13:48 41° WNW 07:17:12 10° SW visible
30 Jan 6.5 06:45:31 10° N 06:49:11 86° WNW 06:52:46 10° SSW visible
30 Jan 10.1 18:57:59 10° WSW 18:59:54 14° W 19:01:50 10° WNW visible
31 Jan 7.8 06:20:58 10° NNE 06:24:29 44° E 06:27:54 10° S visible
31 Jan 9.3 18:31:54 10° SSW 18:35:02 25° W 18:38:12 10° NW visible
01 Feb 9.2 05:56:44 10° NE 05:59:40 22° E 06:02:32 10° SSE visible
01 Feb 7.8 18:06:38 10° S 18:10:15 49° W 18:13:55 10° NNW visible
